Location: Bazinghen
(50.8246°N, 1.6616°E)
Time: 05:35:04
(UTC+00:00)

Cosmos 1892 - Pass Details

Date: 09 April 2020
Orbit: 503 x 526 km, 82.5° (Epoch: 29 May)

Event Time Altitude Azimuth Distance (km) Brightness Sun altitude
Rises 21:29:58 0° 340° (NNW) 2,676 7.5 -23.4°
Reaches altitude 10° 21:32:20 10° 329° (NNW) 1,781 6.5 -23.6°
Maximum altitude 21:35:40 28° 270° (W) 1,025 4.5 -23.9°
Enters shadow 21:36:44 24° 242° (WSW) 1,122 4.4 -24.1°
